Location: Ailingen
(47.6833°N, 9.5000°E)
Time: 11:53:15
(UTC+00:00)

Cosmos 1862 - Pass Details

Date: 18 November 2025
Orbit: 473 x 485 km, 82.5° (Epoch: 11 December)

Event Time Altitude Azimuth Distance (km) Brightness Sun altitude
Rises 17:50:19 0° 345° (NNW) 2,543 6.8 -21.4°
Reaches altitude 10° 17:52:28 10° 340° (NNW) 1,661 5.9 -21.7°
Maximum altitude 17:55:58 48° 265° (W) 633 4.0 -22.3°
Drops below altitude 10° 17:59:28 10° 190° (S) 1,655 5.9 -22.9°
Sets 18:01:35 0° 185° (S) 2,532 6.8 -23.3°
